Weather in Novosysoyevka

Russia / Primorsky Krai     44°14′08″N   133°21′50″E
temp.,
°C
wind,
m/s
gust,
m/s
humid.,
%
clouds,
%
prec.,
mm/h
press.,
hPa
HPBL,
m
19 may, wed
wed1901:00+11ssw11650 0.0 100716
04:00+9sse11690 0.0 100714
07:00+10sw01670 0.0 100855
10:00+20ssw36400 0.0 1006633
13:00+26wsw45300 0.0 10041446
16:00+26wsw55360 0.0 10031546
19:00+22wsw25534 0.0 1004178
22:00+13sw2488100 0.8 1009104
20 may, thu
thu2001:00+13ese1190100 0.1 100812
04:00+11s01890 0.1 100811
07:00+13se11800 0.0 100944
10:00+22sw25510 0.0 1008425
13:00+30sw58281 0.0 10062422
16:00+29sw6828100 0.0 10051669
19:00+23sw41047100 0.0 1005348
22:00+17nw0162100 0.0 100811
21 may, fri
fri2101:00+14s1271100 0.0 100820
04:00+12sse1168100 0.0 100711
07:00+14nne1166100 0.0 100724
10:00+20se0148100 0.0 1006263
13:00+24wnw1137100 0.0 1004730
16:00+24wsw2347100 0.0 1003285
19:00+19sw3662100 0.0 1004165
22:00+16s1267100 0.0 100517
22 may, sat
sat2201:00+15nw0072100 0.0 100510
04:00+14s007599 0.0 100410
07:00+15ene0076100 0.0 100534
10:00+20e2352100 0.0 1005640
13:00+24e2436100 0.0 10041512
16:00+26e3433100 0.0 10032351
19:00+21sse355570 0.0 1004166
22:00+15ssw116510 0.0 100611
23 may, sun
sun2301:00+13sse01720 0.0 100710
04:00+11s11790 0.0 100911
07:00+13wsw11730 0.0 100949
10:00+22sw2447100 0.0 1008593
13:00+25sw5741100 0.0 10071544
16:00+22wsw5754100 0.0 1008757
19:00+19w5966100 0.1 1009554
22:00+14ssw2381100 0.1 101075